[[{"header":{"parameterUnit":"m.s-1","parameterCategory":1,"la1":30.2991,"la2":30.254,"lo1":-89.0895,"lo2":-89.0444,"dy":0.0017,"dx":0.0017,"nx":28,"ny":28,"refTime":"2024-03-28T03:00:00:Z","depth":0,"parameterNumber":2,"parameterNumberName":"U-component_of_WINDS"},"data":[0,0,0,0,0,0,0,0,0,0,0,0,0,0,0,0,0,0,0,0,0,0,0,0,0,0,0,0,0,0,0,0,0,0,0,0,0,0,0,0,0,0,0,0,0,0,0,0,0,0,0,0,0,0,0,0,0,0,-4.9685,-4.9685,0,-4.971,-4.971,-4.971,-4.9598,-4.9595,-4.9592,-4.9589,-4.9616,-4.962,-4.9624,0,0,0,0,0,0,0,0,0,0,0,0,0,-4.9542,-4.9545,-4.9684,-4.9685,-4.9685,-4.971,-4.971,-4.971,-4.9599,-4.9595,-4.9591,-4.9587,-4.9615,-4.9619,-4.9624,0,0,0,0,0,0,0,0,0,0,0,0,0,-4.9589,-4.9546,-4.9684,-4.9632,-4.9628,-4.971,-4.971,-4.971,-4.96,-4.9595,-4.959,-4.9585,-4.9614,-4.9619,-4.9625,-4.9758,0,0,-4.9642,-4.9644,0,0,0,0,0,0,0,0,-4.9587,-4.9595,-4.964,-4.9636,-4.9631,-4.9646,-4.967,-4.9726,-4.9601,-4.9611,-4.9589,-4.9583,-4.963,-4.9634,-4.965,-4.9759,-4.976,-4.9642,-4.9646,-4.9648,-4.965,0,0,0,0,0,0,0,-4.9584,-4.9593,-4.9694,-4.9641,-4.9636,-4.9609,-4.961,-4.968,-4.9648,-4.9609,-4.9601,-4.9606,-4.9627,-4.9645,-4.965,-4.9761,-4.9642,-4.9647,-4.9651,-4.9653,-4.9982,-4.9987,0,0,0,0,0,0,-4.9587,-4.9591,-4.9694,-4.9695,-4.9597,-4.9615,-4.9617,-4.9646,-4.9647,-4.9642,-4.961,-4.9601,-4.9637,-4.9643,-4.965,-4.9807,-4.9648,-4.9654,-4.9657,-4.9977,-4.9983,-4.9989,0,0,0,0,0,0,-4.9584,-4.9597,-4.9693,-4.9641,-4.9651,-4.9623,-4.9657,-4.9649,-4.9667,-4.9647,-4.9641,-4.9634,-4.9634,-4.9642,-4.9732,-4.9806,-4.9656,-4.9661,-4.997,-4.9979,-4.9986,-5.0121,0,0,0,0,0,0,-4.9581,-4.9597,-4.9647,-4.9643,-4.9654,-4.9774,-4.9662,-4.9653,-4.9677,-4.9664,-4.9668,-4.9663,-4.963,-4.9724,-4.9738,-4.9811,-4.9666,-4.9964,-4.9974,-4.9983,-5.011,-5.0133,-5.0152,0,0,0,0,0,-4.9576,-4.9684,-4.965,-4.9663,-4.9716,-4.9778,-4.9785,-4.9744,-4.9683,-4.9733,-4.9721,-4.9663,-4.9796,-4.9734,-4.9749,-4.9825,-4.9959,-4.9971,-4.9983,-5.01,-5.0128,-5.0152,0,0,0,0,0,0,-4.9697,-4.9682,-4.9644,-4.9754,-4.9768,-4.9759,-4.9821,-4.9775,-4.9807,-4.9794,-4.9743,-4.9745,-4.9844,-4.9843,-4.9775,-4.9955,-4.9867,-4.9882,-4.9951,-4.9978,-4.9998,-4.9996,-4.967,0,0,0,0,0,-4.9736,-4.9788,-4.9772,-4.987,-4.988,-4.985,-4.9875,-4.9843,-4.9856,-4.9861,-4.9855,-4.9871,-4.9916,-4.9947,-4.9987,-5.0109,-5.0109,-5.0169,-5.019,-5.0208,-5.0222,-5.0287,-5.0314,-5.0028,-5.0028,-5.0028,0,0,-4.9818,-4.9816,-4.9852,-4.9895,-4.9902,-4.9957,-4.9855,-4.9918,-4.9959,-4.9871,-4.9955,-4.9952,-4.9966,-5.0073,-5.012,-5.0076,-5.0301,-5.0223,-5.0237,-5.0241,-5.0303,-5.033,-5.0354,-5.0037,-5.0035,-5.0034,0,0,-4.9995,-4.9999,-5.0081,-5.0091,-5.0104,-5.0083,-5.0103,-5.0102,-5.0096,-5.018,-5.0116,-5.0165,-5.0243,-5.0256,-5.0273,-5.0457,-5.0406,-5.0472,-5.0582,-5.0647,-5.067,-5.0689,-5.0756,-5.0781,-5.0486,-5.0486,-5.0486,0,-5.0095,-5.0175,-5.013,-5.0197,-5.0218,-5.0142,-5.0226,-5.0237,-5.0263,-5.028,-5.023,-5.0327,-5.0331,-5.0441,-5.0486,-5.0502,-5.0524,-5.0471,-5.067,-5.0689,-5.0707,-5.077,-5.0795,-5.0494,-5.0493,-5.0492,-5.0492,0,-5.0298,-5.0355,-5.0421,-5.0447,-5.0476,-5.0551,-5.0518,-5.0553,-5.0518,-5.0504,-5.0591,-5.0593,-5.0633,-5.0657,-5.0624,-5.0763,-5.0735,-5.0679,-5.0589,-5.0743,-5.0801,-5.0825,-5.0505,-5.0503,-5.05,-5.0498,0,0,-5.0551,-5.0553,-5.0578,-5.0589,-5.0598,-5.0642,-5.0714,-5.0753,-5.0784,-5.0805,-5.0865,-5.0934,-5.0882,-5.0902,-5.087,-5.0927,-5.1074,-5.0863,-5.0863,-5.0903,-5.1228,-5.1271,-5.13,-5.104,-5.1045,-5.1048,-5.1227,0,-5.0726,-5.0849,-5.0811,-5.0936,-5.0988,-5.0917,-5.098,-5.0994,-5.0982,-5.1026,-5.1013,-5.1064,-5.0991,-5.1002,-5.1056,-5.1045,-5.1139,-5.1032,-5.1097,-5.11,-5.1096,-5.133,-5.1375,-5.1543,-5.125,-5.1254,-5.1256,0,-5.0945,-5.0974,-5.1105,-5.1106,-5.1126,-5.1184,-5.1217,-5.126,-5.1274,-5.1262,-5.1285,-5.1241,-5.1314,-5.1225,-5.1325,-5.1253,-5.1277,-5.1276,-5.1282,-5.1286,-5.1187,-5.1341,-5.1596,-5.1622,-5.1292,-5.1289,-5.1286,0,-5.1117,-5.1189,-5.1277,-5.1289,-5.1293,-5.1335,-5.1339,-5.1348,-5.1374,-5.1404,-5.142,-5.1459,-5.1479,-5.151,-5.1479,-5.1417,-5.1584,-5.1492,-5.1577,-5.1578,-5.1615,-5.1613,-5.1878,-5.1631,-5.1631,-5.163,-5.163,0,-5.1315,-5.1398,-5.1354,-5.1408,-5.1499,-5.1455,-5.1547,-5.1542,-5.1552,-5.1604,-5.1545,-5.1596,-5.1551,-5.1599,-5.1575,-5.1662,-5.1671,-5.1664,-5.1657,-5.167,-5.1671,-5.1685,-5.1673,-5.1637,-5.1636,-5.1634,-5.1633,0,-5.1523,-5.1497,-5.1587,-5.1584,-5.1585,-5.1652,-5.165,-5.17,-5.1685,-5.1752,-5.1766,-5.1743,-5.1795,-5.1767,-5.1822,-5.1806,-5.1918,-5.1895,-5.1914,-5.1908,-5.1994,-5.1987,-5.2277,-5.2314,-5.2044,-5.2046,-5.2049,0,-5.1651,-5.1713,-5.1716,-5.1747,-5.1755,-5.1805,-5.1832,-5.1792,-5.1822,-5.1844,-5.1892,-5.194,-5.1975,-5.2063,-5.2052,-5.2094,-5.2071,-5.217,-5.2077,-5.2088,-5.2073,-5.207,-5.2077,-5.2189,-5.2192,-5.2195,-5.2197,0,-5.1882,-5.1866,-5.1906,-5.1944,-5.1977,-5.2005,-5.2027,-5.2056,-5.2016,-5.2054,-5.2107,-5.2135,-5.2191,-5.2239,-5.2276,-5.228,-5.2233,-5.2227,-5.2248,-5.2262,-5.227,-5.2268,-5.1965,-5.222,-5.2218,-5.2216,-5.2215,-5.2214,-5.2053,-5.2105,-5.2116,-5.2164,-5.2177,-5.22,-5.2247,-5.2238,-5.2282,-5.2324,-5.2298,-5.2361,-5.2375,-5.2419,-5.243,-5.2479,-5.2439,-5.2471,-5.2479,-5.2487,-5.2499,-5.2263,-5.2485,-5.2485,-5.2484,-5.2484,-5.2483,0,-5.2281,-5.2285,-5.2329,-5.2363,-5.2401,-5.2353,-5.2376,-5.2411,-5.2467,-5.2484,-5.252,-5.2582,-5.263,-5.2623,-5.2666,-5.2707,-5.2686,-5.272,-5.2716,-5.2718,-5.2532,-5.2509,-5.2735,-5.2735,-5.2735,-5.2735,-5.2735,-5.2735,-5.2404,-5.249,-5.2476,-5.2569,-5.2572,-5.2633,-5.265,-5.2671,-5.2685,-5.2756,-5.2795,-5.279,-5.2798,-5.2842,-5.2884,-5.288,-5.2899,-5.2941,-5.293,-5.2756,-5.2731,-5.2707,-5.2685,-5.2945,-5.2945,-5.3112,-5.3113,-5.3114]},{"header":{"parameterUnit":"m.s-1","parameterCategory":1,"la1":30.2991,"la2":30.254,"lo1":-89.0895,"lo2":-89.0444,"dy":0.0017,"dx":0.0017,"nx":28,"ny":28,"refTime":"2024-03-28T03:00:00:Z","depth":0,"parameterNumber":3,"parameterNumberName":"V-component_of_WINDS"},"data":[0,0,0,0,0,0,0,0,0,0,0,0,0,0,0,0,0,0,0,0,0,0,0,0,0,0,0,0,0,0,0,0,0,0,0,0,0,0,0,0,0,0,0,0,0,0,0,0,0,0,0,0,0,0,0,0,0,0,1.1073,1.1073,0,1.1049,1.1049,1.1049,1.104,1.104,1.104,1.104,1.1014,1.1013,1.1013,0,0,0,0,0,0,0,0,0,0,0,0,0,1.1111,1.111,1.1073,1.1073,1.1072,1.1049,1.1049,1.1049,1.104,1.104,1.104,1.104,1.1014,1.1013,1.1012,0,0,0,0,0,0,0,0,0,0,0,0,0,1.1091,1.111,1.1073,1.1065,1.1064,1.1049,1.1049,1.1048,1.104,1.104,1.104,1.104,1.1015,1.1013,1.1012,1.1003,0,0,1.1009,1.1008,0,0,0,0,0,0,0,0,1.1093,1.109,1.1067,1.1066,1.1065,1.1048,1.1053,1.1033,1.104,1.1049,1.104,1.104,1.1025,1.1023,1.1018,1.1002,1.1001,1.1009,1.1008,1.1008,1.1007,0,0,0,0,0,0,0,1.1094,1.1091,1.1064,1.1066,1.1065,1.1063,1.106,1.1049,1.1037,1.1048,1.1047,1.1045,1.1024,1.1019,1.1018,1.1,1.1009,1.1008,1.1007,1.1007,1.0976,1.0976,0,0,0,0,0,0,1.1097,1.1092,1.1064,1.1063,1.1079,1.1062,1.1059,1.1053,1.1037,1.1034,1.1045,1.1044,1.1021,1.1019,1.1017,1.1005,1.1008,1.1007,1.1006,1.0976,1.0976,1.0976,0,0,0,0,0,0,1.1098,1.1094,1.1065,1.1077,1.1074,1.1061,1.1054,1.1052,1.1047,1.1034,1.1032,1.1042,1.1021,1.1018,1.1007,1.1004,1.1006,1.1005,1.0976,1.0976,1.0976,1.0982,0,0,0,0,0,0,1.1099,1.1095,1.1091,1.1077,1.1073,1.1056,1.1054,1.1052,1.1045,1.1045,1.1031,1.1028,1.1021,1.1009,1.1006,1.1003,1.1004,1.0977,1.0976,1.0976,1.0982,1.0982,1.0982,0,0,0,0,0,1.11,1.1093,1.1091,1.1087,1.1068,1.1056,1.1053,1.1045,1.1045,1.1041,1.1033,1.1029,1.1005,1.1007,1.1004,1.1001,1.0977,1.0976,1.0976,1.0982,1.0982,1.0982,0,0,0,0,0,0,1.1106,1.1091,1.1088,1.1077,1.1068,1.1054,1.1049,1.1045,1.1036,1.1036,1.1026,1.1023,1.1012,1.1005,1.1008,1.0991,1.0991,1.099,1.0996,1.0996,1.0996,1.0998,1.1003,0,0,0,0,0,1.1106,1.1097,1.1085,1.1076,1.1072,1.1061,1.1056,1.105,1.104,1.1036,1.1027,1.1018,1.1008,1.1002,1.0992,1.0981,1.0978,1.0977,1.0978,1.0978,1.0977,1.0971,1.0971,1.0975,1.0975,1.0975,0,0,1.1105,1.1096,1.1091,1.1077,1.1069,1.1061,1.1058,1.1049,1.1043,1.1035,1.1024,1.1017,1.1005,1.0995,1.0989,1.0989,1.0975,1.0977,1.0977,1.0977,1.0971,1.0971,1.097,1.0975,1.0975,1.0975,0,0,1.1101,1.1093,1.1085,1.1078,1.1067,1.106,1.1058,1.1046,1.1041,1.103,1.1025,1.1017,1.1,1.0993,1.0987,1.0981,1.0977,1.0978,1.0978,1.0973,1.0973,1.0972,1.0971,1.097,1.0977,1.0977,1.0977,0,1.1102,1.1089,1.1081,1.1073,1.1067,1.1061,1.1053,1.1046,1.1032,1.1028,1.1027,1.1008,1.0999,1.0987,1.0986,1.0981,1.0979,1.0979,1.0973,1.0973,1.0973,1.0971,1.097,1.0977,1.0977,1.0977,1.0977,0,1.1091,1.1082,1.1077,1.1065,1.1058,1.105,1.1042,1.1036,1.1032,1.1025,1.1015,1.1005,1.0993,1.099,1.0985,1.0977,1.0977,1.0975,1.0974,1.0973,1.0971,1.097,1.0978,1.0978,1.0978,1.0978,0,0,1.1088,1.1073,1.1071,1.1066,1.1054,1.1047,1.1039,1.1029,1.1024,1.1015,1.1008,1.0995,1.0994,1.0987,1.0981,1.0977,1.0974,1.0975,1.0975,1.0976,1.0965,1.0967,1.0966,1.0971,1.0971,1.0971,1.0966,0,1.1082,1.1067,1.1061,1.105,1.1042,1.1036,1.103,1.1022,1.1016,1.1008,1.1002,1.0993,1.0991,1.0987,1.0982,1.0975,1.0971,1.0975,1.0964,1.0964,1.0968,1.0965,1.0966,1.0962,1.0965,1.0965,1.0965,0,1.1072,1.1064,1.1052,1.1042,1.1039,1.1033,1.1023,1.1016,1.1007,1.1004,1.0997,1.0992,1.0984,1.0984,1.0972,1.0975,1.097,1.0966,1.0966,1.0964,1.0964,1.0964,1.0961,1.096,1.0964,1.0964,1.0964,0,1.1072,1.1058,1.105,1.1045,1.1033,1.1029,1.1024,1.1015,1.101,1.1002,1.0998,1.0989,1.0984,1.0977,1.097,1.097,1.0959,1.0958,1.0956,1.0956,1.0953,1.0953,1.095,1.095,1.095,1.095,1.095,0,1.1066,1.1059,1.1049,1.1044,1.1036,1.1029,1.1022,1.1016,1.1009,1.1002,1.0997,1.0991,1.0982,1.0975,1.0969,1.0961,1.0958,1.0955,1.0954,1.0956,1.0956,1.0952,1.0952,1.095,1.095,1.095,1.095,0,1.1064,1.1057,1.1048,1.1037,1.1035,1.103,1.1021,1.1016,1.101,1.1002,1.1,1.0991,1.0982,1.0975,1.0963,1.096,1.0951,1.0949,1.0955,1.0954,1.0952,1.0952,1.0946,1.0945,1.0946,1.0946,1.0946,0,1.106,1.1055,1.1045,1.104,1.1036,1.1028,1.1023,1.1016,1.1011,1.1002,1.0998,1.0989,1.0982,1.0969,1.0961,1.0952,1.095,1.0949,1.0949,1.0951,1.0951,1.0951,1.0951,1.0949,1.0949,1.0949,1.0949,0,1.1055,1.1052,1.1045,1.1037,1.1032,1.1025,1.1018,1.1015,1.1007,1.1001,1.0993,1.0988,1.0977,1.0968,1.0959,1.0954,1.095,1.0949,1.0948,1.095,1.0953,1.0952,1.0955,1.0949,1.0949,1.0949,1.0949,1.0949,1.1052,1.1048,1.104,1.1033,1.1027,1.1021,1.1016,1.101,1.1004,1.0995,1.0991,1.0983,1.0975,1.0963,1.0957,1.0951,1.095,1.0948,1.0948,1.0948,1.0948,1.0954,1.0949,1.0949,1.0949,1.0949,1.0949,0,1.1047,1.1042,1.1035,1.1027,1.1021,1.1019,1.1011,1.1007,1.1,1.0993,1.0987,1.0978,1.097,1.0962,1.0954,1.095,1.0949,1.0948,1.0949,1.0948,1.0949,1.0951,1.095,1.095,1.095,1.095,1.095,1.095,1.1043,1.1036,1.1032,1.1022,1.1017,1.101,1.1006,1.1,1.0995,1.0986,1.098,1.0975,1.0968,1.0959,1.0952,1.095,1.0948,1.0948,1.0946,1.0947,1.0947,1.0947,1.0949,1.0948,1.0948,1.0945,1.0944,1.0944]}]]